Wind_Speed
31 29 23 22 23 23 21 20 21 21 20 17 14 16 18 19 20 21 21 21 21 21 21 21 21 20 20 20 21 20 18 17 16 16 15 13 12 11 10 10 10 9 8 8 7 7 7 6 7 7 6 5 5 6 5 5 6 7 7 8 8 8 7
30 30 26 24 25 23 21 21 22 21 19 15 13 15 17 19 20 21 22 22 22 22 21 21 21 20 21 21 21 20 18 16 15 15 14 13 12 11 10 10 9 9 8 8 8 8 8 8 8 8 7 6 7 7 7 7 7 7 8 8 8 9 8
29 31 30 25 22 21 21 22 23 23 19 15 13 14 15 17 19 21 22 22 22 22 21 21 21 21 21 21 20 19 17 15 14 14 14 13 13 12 10 10 10 10 10 9 9 9 9 9 10 10 9 9 8 9 9 8 8 8 9 9 9 9 9
26 28 30 23 17 19 20 20 23 23 17 14 14 14 14 17 19 21 22 22 22 21 21 21 22 22 21 20 19 17 15 14 14 14 14 14 13 12 11 11 11 11 12 12 11 10 10 11 11 11 12 12 11 11 11 10 10 10 10 10 10 10 10
23 25 27 21 16 19 21 19 20 21 17 15 16 16 16 18 19 20 20 21 21 21 21 21 21 21 19 18 17 16 15 14 14 14 14 14 14 13 13 13 13 12 12 13 12 12 12 12 12 13 13 14 14 14 13 13 12 12 12 12 12 11 11
21 25 27 23 18 18 21 19 18 20 21 21 19 18 18 18 19 20 20 20 21 20 20 20 19 18 18 17 16 16 15 14 14 13 13 14 13 13 13 14 13 13 13 13 14 13 14 14 14 15 15 15 15 15 15 15 15 15 14 14 14 13 12
24 26 27 28 22 17 19 20 19 22 25 25 22 21 20 19 18 19 20 19 19 19 19 18 18 17 17 17 17 16 16 15 14 14 14 14 14 13 14 14 14 15 14 14 14 14 14 15 15 16 16 16 17 17 17 17 17 17 16 16 16 15 15
27 26 28 31 25 19 20 22 22 23 25 25 23 21 18 18 19 19 19 19 19 19 19 18 18 18 18 18 18 18 18 17 16 15 15 14 14 14 14 15 15 15 14 14 14 14 14 14 14 14 15 16 17 17 18 19 19 19 18 18 18 17 17
25 25 28 27 24 23 22 21 20 20 22 25 24 19 16 17 18 18 19 20 20 20 19 19 19 19 20 19 19 19 19 18 17 16 15 14 14 14 15 15 16 15 15 15 15 14 14 14 14 13 14 15 16 17 18 19 20 20 20 20 20 19 18
23 25 26 21 20 22 21 19 19 20 23 26 25 20 16 15 17 18 19 20 20 20 20 20 20 20 19 19 19 19 18 17 17 16 16 15 15 15 15 15 15 14 14 14 13 13 14 14 14 14 14 14 15 16 18 19 20 21 21 21 22 22 21
25 30 29 25 25 24 20 19 21 22 23 22 21 20 18 17 18 18 19 20 19 20 20 20 20 19 19 19 19 18 17 17 16 16 15 15 16 16 15 15 14 14 14 14 13 13 14 14 15 15 15 14 14 14 16 17 19 20 21 21 22 23 22
27 29 29 28 30 28 21 18 20 23 23 18 16 18 18 18 19 18 19 20 20 21 21 21 21 20 20 20 19 18 17 16 15 15 15 15 15 16 15 14 14 14 14 14 13 13 14 15 15 15 14 13 12 12 13 14 15 17 19 20 21 22 23
27 28 28 26 27 24 17 15 20 24 23 19 17 18 18 18 18 18 19 20 21 22 22 22 22 21 21 21 20 19 17 16 15 15 16 16 16 16 15 15 14 14 15 15 15 14 14 15 15 14 13 13 11 10 10 11 12 14 15 17 18 19 20
28 29 29 27 25 20 14 17 23 25 23 20 19 18 19 19 19 20 20 21 22 22 22 23 23 22 21 21 21 20 18 18 17 17 17 18 17 17 17 16 15 15 15 16 16 15 15 15 15 13 13 12 10 9 9 9 10 11 12 14 15 15 16
29 30 29 28 25 20 17 20 24 25 23 22 21 20 19 20 20 21 22 22 22 21 22 22 22 22 21 20 21 21 21 21 20 19 20 20 20 19 19 18 18 17 17 16 17 16 15 15 14 13 12 12 11 9 9 8 9 9 10 12 13 14 14
32 31 29 29 27 24 21 22 25 27 25 23 22 22 21 20 20 20 21 22 21 21 21 21 21 22 22 21 22 23 25 25 24 23 22 22 22 21 21 20 20 19 18 17 17 17 16 15 13 12 12 12 11 10 9 8 8 9 10 11 13 14 14
34 33 32 32 32 30 26 25 26 27 26 24 24 24 23 22 21 21 21 21 21 21 22 22 21 21 22 22 23 24 26 27 26 25 23 23 23 23 22 22 21 19 18 18 17 17 17 15 13 13 13 13 12 11 9 9 9 10 11 13 15 16 16
35 34 32 31 31 30 28 28 28 27 26 26 27 27 26 24 22 21 21 21 21 21 22 21 21 21 20 21 22 23 24 26 26 25 23 22 23 23 23 22 20 19 18 18 18 17 17 16 14 14 14 14 14 12 11 10 11 11 13 15 17 19 19
33 34 32 30 28 27 27 29 30 31 30 30 29 29 29 27 25 24 23 22 22 21 21 21 21 20 19 19 19 19 21 22 23 22 21 21 22 23 23 21 19 18 18 18 18 17 17 17 16 16 15 15 15 14 13 13 13 14 15 16 18 20 21
32 34 33 31 28 26 27 28 29 30 30 30 30 30 30 29 28 27 26 25 23 22 23 23 23 23 21 20 19 19 19 20 20 19 19 20 21 22 21 19 18 18 18 18 18 17 16 17 18 18 17 17 16 16 16 16 15 15 16 17 18 20 22
30 32 32 31 28 27 27 28 27 26 26 27 28 28 28 28 28 29 28 27 26 26 25 26 26 26 25 23 21 20 20 20 18 18 18 18 19 20 18 17 17 18 18 17 17 17 17 17 18 18 18 18 18 17 16 16 16 16 16 16 18 20 22
30 33 33 31 29 27 27 27 26 26 26 28 29 29 29 29 29 30 30 29 29 29 28 28 28 28 27 25 23 21 19 19 18 18 17 17 18 18 17 17 16 17 17 17 17 17 17 17 17 17 18 19 19 18 16 16 16 16 16 17 19 22 24
33 34 32 30 27 24 25 27 26 26 28 30 33 33 32 31 30 30 31 30 31 32 32 32 31 30 28 27 24 21 18 17 17 18 18 18 18 17 16 16 16 16 17 17 16 16 16 16 17 17 17 18 18 18 17 18 18 18 17 18 20 22 23
33 32 31 31 26 21 24 27 26 27 27 29 31 31 31 31 30 30 31 30 31 33 34 34 34 33 31 29 27 21 16 15 15 15 16 16 16 15 15 15 16 16 16 16 16 16 16 16 17 17 18 18 18 18 19 20 21 21 20 21 22 23 24
33 31 31 30 25 22 26 27 26 25 25 25 26 27 27 28 28 28 29 29 30 33 34 35 36 35 33 32 29 22 18 17 15 14 14 14 14 15 15 15 16 16 17 17 17 17 18 17 17 18 19 20 20 20 20 21 22 23 24 24 26 27 27
34 32 32 30 27 26 28 28 26 26 25 24 24 25 24 24 24 24 24 25 27 29 31 33 36 36 35 34 31 25 21 20 18 17 17 17 17 17 16 17 17 18 18 19 19 20 20 20 19 19 19 20 21 21 21 22 23 24 25 26 27 28 29
35 33 33 31 29 29 30 29 27 27 27 26 25 25 24 23 21 21 22 22 23 25 27 30 33 35 35 35 33 29 24 23 22 21 20 21 20 19 19 19 19 20 20 21 21 22 22 22 22 21 21 21 22 22 22 23 25 25 25 26 27 29 31
38 37 36 35 33 32 32 31 29 28 28 28 28 27 26 24 22 21 22 22 22 23 25 27 29 31 32 33 34 32 28 26 25 24 24 24 24 23 22 22 22 21 21 22 22 23 23 23 24 24 24 25 25 25 26 26 28 28 28 28 29 31 33
42 41 40 38 37 35 34 34 32 31 31 30 30 29 28 27 25 24 24 24 24 24 25 25 26 28 30 31 32 32 31 29 27 26 26 26 26 25 25 25 24 23 23 23 24 24 25 26 26 27 27 28 29 29 29 30 31 32 32 32 33 34 36
43 42 42 41 40 38 37 37 36 35 33 32 32 31 31 29 28 27 27 26 26 26 26 26 26 27 29 30 30 30 31 30 29 29 29 28 28 28 27 27 26 26 26 26 27 27 28 28 29 30 30 32 33 33 34 34 35 36 35 34 35 36 37
43 43 43 43 42 40 39 39 38 36 35 34 33 33 33 32 30 29 28 28 28 28 29 28 28 27 28 29 30 30 31 31 31 31 31 31 31 30 30 29 29 28 28 28 29 30 30 31 32 33 34 35 36 37 37 38 39 39 39 38 37 38 39
45 44 44 45 44 42 42 42 40 38 37 36 35 35 35 34 32 30 29 29 29 30 31 31 30 29 29 29 30 31 31 31 31 32 33 34 34 33 32 32 31 31 31 31 32 32 33 34 35 36 37 38 39 40 41 42 42 43 43 44 43 42 42
47 45 45 46 46 45 45 45 43 42 40 39 38 38 37 36 35 32 31 31 31 32 32 32 32 31 30 30 31 31 31 32 32 33 34 35 36 36 35 34 34 34 33 34 35 36 36 37 38 39 40 41 42 43 44 45 45 46 47 49 48 46 46
49 47 45 46 46 46 47 47 47 45 44 42 42 41 40 39 38 36 35 34 33 34 34 34 33 33 32 32 32 32 32 32 33 34 34 35 36 37 37 36 36 36 36 36 37 38 39 40 40 42 43 45 46 47 48 48 48 48 50 51 51 50 50
50 48 46 45 45 46 47 48 48 47 46 46 45 44 43 42 41 40 38 37 36 36 35 35 35 34 34 34 33 33 33 33 34 35 35 35 36 37 38 37 38 38 39 39 40 41 41 43 44 45 47 48 50 50 50 50 50 51 52 53 53 54 54
50 49 47 45 45 45 46 47 47 47 47 48 47 46 45 44 43 42 41 39 39 38 37 37 37 37 37 36 36 35 34 35 36 36 36 36 37 37 38 39 39 40 41 42 42 43 45 46 47 49 50 51 51 51 51 51 51 52 54 55 57 57 57
50 49 48 46 45 45 45 46 47 47 47 48 48 48 47 46 45 44 43 42 41 41 40 39 39 39 39 38 38 37 36 37 38 37 37 38 39 39 39 40 41 42 43 43 44 45 46 47 49 49 50 51 52 52 53 53 54 55 56 57 58 58 58
51 50 49 47 46 46 46 46 47 47 47 48 48 48 48 47 46 45 44 44 43 43 42 41 41 41 40 40 40 39 39 40 40 39 39 40 41 41 41 42 43 44 44 44 46 47 48 49 49 50 51 52 53 54 54 55 56 57 57 57 57 57 57
Wind_Direction
246 246 235 226 234 239 236 229 222 217 210 201 193 197 206 210 213 218 221 221 222 223 226 226 224 222 221 220 220 219 217 215 215 220 225 225 224 220 217 214 214 219 221 219 220 220 221 225 234 247 255 262 275 286 297 312 322 331 337 334 325 316 311
241 245 242 230 226 229 231 232 227 217 205 193 191 198 207 213 215 219 223 222 222 222 221 221 219 218 218 218 219 218 216 216 219 223 228 229 230 229 226 226 227 229 233 232 231 231 231 237 244 253 260 263 269 277 285 294 302 310 318 324 324 317 308
233 242 245 236 224 225 224 223 227 223 205 186 190 201 206 214 218 220 222 222 222 222 219 217 216 214 217 219 220 219 217 218 221 224 229 232 234 236 236 238 242 244 248 249 247 246 243 244 248 254 261 265 267 271 277 285 290 294 301 308 316 315 309
218 231 241 240 229 231 233 229 233 231 211 188 193 203 207 214 220 220 222 222 220 221 219 217 216 215 217 221 223 223 222 222 224 225 230 236 240 245 248 249 253 255 258 262 262 263 261 259 260 261 264 268 268 270 273 279 283 285 289 296 302 307 309
210 222 235 238 227 233 242 240 240 236 220 202 200 205 209 214 220 221 221 222 220 219 219 218 220 220 221 225 226 228 230 228 229 231 235 242 247 252 256 256 258 260 262 267 269 270 270 271 271 270 270 271 271 271 271 273 277 279 282 287 291 296 302
218 224 230 232 227 232 242 242 243 242 227 211 202 205 211 215 220 222 220 221 220 219 221 222 224 226 227 230 231 233 236 235 236 239 241 247 252 256 258 258 260 262 263 267 268 270 272 272 272 272 271 271 272 271 271 271 271 274 277 280 283 286 290
227 222 223 230 229 228 240 239 234 234 228 216 205 203 209 214 219 222 220 220 221 220 221 223 225 229 232 233 234 234 236 237 239 241 244 249 254 257 260 262 264 265 268 271 273 274 274 274 273 274 273 272 270 269 270 270 270 271 273 276 278 281 283
232 222 221 228 226 219 233 238 231 229 229 223 212 202 205 214 218 223 222 220 221 220 221 223 224 228 230 231 233 233 234 236 237 240 244 249 255 259 262 264 265 268 273 276 277 278 279 278 276 276 275 275 273 270 268 269 269 270 272 273 275 277 279
237 232 229 227 221 213 221 234 235 229 225 226 222 210 208 217 220 225 227 223 222 221 221 224 224 226 228 229 232 233 235 237 239 242 246 249 254 257 259 262 264 268 274 276 279 281 282 282 280 279 278 277 276 274 270 268 268 269 270 272 274 275 277
233 232 233 227 224 217 211 221 227 222 223 231 234 224 217 224 225 227 231 229 228 228 226 226 226 226 228 229 231 233 235 240 244 247 250 252 254 256 257 260 263 267 272 277 281 282 283 284 285 285 282 279 276 275 273 271 270 271 271 272 274 277 278
221 227 232 234 240 235 218 218 220 216 222 232 232 222 217 225 229 229 233 235 236 236 235 233 230 228 229 230 232 234 237 242 247 251 254 257 257 259 260 261 265 269 273 278 282 282 284 286 287 288 287 285 282 279 278 277 275 275 276 275 276 278 280
217 227 234 234 240 239 228 224 223 218 218 218 216 213 212 220 228 232 235 237 237 239 240 238 235 231 230 232 233 236 241 247 253 257 259 261 261 261 264 265 267 271 275 280 282 283 284 286 288 290 290 292 291 286 283 281 280 279 279 280 280 281 282
218 227 233 232 234 236 227 223 225 222 217 211 207 206 206 214 226 231 234 236 237 238 239 240 240 237 235 236 236 238 245 252 258 262 263 262 262 263 265 268 269 271 274 279 282 283 285 287 290 292 292 293 295 293 290 287 285 284 282 283 284 284 284
225 229 233 235 235 234 222 213 220 221 216 212 209 206 205 207 217 224 227 231 235 237 239 240 242 243 242 243 243 242 247 252 256 261 262 262 263 264 267 270 270 271 273 277 282 285 286 289 292 294 293 292 293 296 295 291 289 288 287 287 288 289 290
227 231 235 241 242 241 230 216 216 219 218 217 216 217 216 212 214 218 220 226 233 238 242 243 244 246 247 249 252 252 252 254 256 259 259 260 261 263 267 270 271 272 274 279 283 286 288 290 293 292 288 288 289 291 291 288 288 287 288 290 292 294 296
223 229 234 241 244 244 239 225 217 218 220 223 224 227 228 224 220 218 217 223 230 236 242 245 246 248 248 250 253 255 257 257 258 258 257 257 259 261 264 268 273 275 277 281 284 286 288 289 288 285 282 281 282 283 283 281 282 286 290 293 295 296 298
221 227 229 233 236 237 236 230 222 220 222 226 231 234 235 233 229 227 225 226 230 235 239 242 244 246 248 249 250 253 257 259 260 259 257 254 254 257 262 267 272 276 278 281 283 283 284 283 279 275 273 274 275 275 276 274 276 283 289 293 296 298 301
225 230 232 233 235 235 234 230 228 228 228 230 234 237 240 241 240 240 239 238 237 239 243 246 248 249 252 254 253 253 255 258 259 258 254 252 252 255 259 265 271 275 277 279 278 276 275 274 270 264 263 266 270 271 271 270 272 278 284 289 294 297 300
232 235 239 241 241 240 237 233 230 230 231 232 235 238 242 245 247 248 250 249 248 249 253 256 259 259 262 265 262 255 253 254 255 252 248 247 249 252 258 264 270 273 273 272 270 267 266 266 265 263 260 259 261 265 270 273 275 277 280 285 289 293 297
235 235 242 246 246 244 241 237 235 234 233 234 235 237 241 245 248 249 251 254 256 257 258 261 265 267 270 273 271 263 256 252 251 247 242 242 247 251 257 264 268 268 266 264 264 264 263 260 260 262 263 261 260 262 267 274 278 278 279 283 288 291 296
236 238 245 250 251 249 244 243 244 244 244 244 243 245 247 248 249 251 252 255 257 258 260 262 265 269 272 275 276 271 261 251 247 245 241 240 245 250 256 260 261 261 260 260 262 263 260 258 257 259 262 266 266 266 267 271 275 278 281 286 291 294 297
232 234 238 240 241 241 242 245 248 249 252 253 253 253 253 252 252 252 252 253 254 257 259 261 263 267 270 273 277 275 262 249 245 246 244 241 244 248 251 252 251 254 258 260 261 262 261 260 260 259 260 263 268 271 275 278 281 283 285 288 293 296 298
225 228 230 233 232 232 238 244 248 250 251 252 253 254 255 255 256 254 253 252 252 253 257 259 261 264 266 269 273 273 261 247 242 243 244 243 244 246 245 244 245 249 256 261 263 263 262 262 263 263 263 267 272 278 284 287 290 291 291 291 293 294 297
225 227 229 233 233 232 236 240 243 245 246 247 250 252 254 256 257 256 255 254 252 252 253 256 259 262 262 264 268 266 254 244 239 240 243 244 243 243 243 244 248 251 256 261 265 265 264 263 264 266 270 274 278 282 285 287 288 290 292 292 292 292 294
225 226 229 231 230 230 234 235 235 237 238 240 244 248 250 252 253 254 254 253 251 251 251 252 255 258 259 260 263 258 245 241 239 239 245 246 243 245 249 251 254 256 258 263 266 268 269 267 267 269 273 277 279 280 281 283 283 285 286 288 289 290 291
222 224 227 228 226 227 231 231 230 232 232 233 236 240 242 243 245 247 248 248 247 247 249 249 251 254 254 256 258 253 242 240 239 239 244 249 249 251 255 258 260 260 261 264 267 268 269 270 270 270 271 274 275 276 277 279 279 281 282 284 286 286 286
225 226 227 229 227 226 228 228 228 229 230 229 230 231 232 233 235 237 239 241 242 243 244 244 245 249 250 251 254 251 243 238 239 239 241 246 248 251 254 258 260 260 261 263 265 266 267 268 270 270 270 270 271 273 275 277 278 279 280 280 280 281 281
228 230 230 231 229 227 228 229 227 227 227 227 227 228 228 228 229 230 232 235 237 238 239 239 240 243 246 247 249 249 244 239 240 240 241 243 246 248 251 253 254 257 260 263 264 265 266 267 269 271 273 273 274 276 278 279 279 279 279 279 278 278 278
226 230 233 233 231 229 229 230 229 227 226 226 226 228 228 226 227 230 232 234 235 236 237 237 236 238 241 243 245 245 243 241 241 242 242 243 243 245 248 249 250 253 257 260 261 263 265 266 268 270 273 275 278 279 280 280 280 280 279 279 278 277 278
221 226 231 234 233 232 231 231 230 229 228 227 227 229 228 227 228 231 234 235 236 238 239 239 238 236 237 240 242 242 242 241 241 241 243 244 244 244 246 249 251 253 255 257 260 263 265 267 269 271 274 277 279 280 282 282 282 282 281 278 276 276 277
218 221 226 231 233 234 235 234 233 233 233 233 232 232 232 230 229 231 235 236 237 238 239 240 241 240 240 240 241 242 243 244 243 242 243 245 245 245 246 248 250 253 255 258 262 265 268 271 272 273 275 277 279 281 283 284 284 283 282 279 277 276 277
218 221 224 228 230 232 235 237 236 237 238 238 238 238 237 234 231 231 234 236 236 237 239 240 241 242 243 244 244 244 245 246 247 246 245 246 248 249 249 249 250 252 255 258 262 265 268 270 272 274 276 277 279 281 282 283 283 282 282 281 279 278 279
219 221 223 227 229 230 233 236 237 238 239 240 240 241 241 239 236 234 235 236 237 238 239 240 241 242 243 245 246 247 248 248 248 248 248 248 249 251 251 252 253 255 256 258 261 264 266 269 271 274 276 277 279 280 280 281 281 280 281 281 282 282 282
222 222 223 225 228 229 231 234 236 237 239 240 241 241 242 242 241 239 238 238 238 239 240 242 242 242 243 245 246 247 248 249 249 250 251 251 250 251 252 253 255 257 259 261 263 265 268 270 272 274 275 277 278 278 279 279 278 278 279 281 283 285 285
225 226 225 226 228 229 230 232 234 235 237 239 240 241 241 242 242 241 240 240 241 241 243 244 245 246 246 246 247 248 249 250 251 251 252 252 252 252 254 256 257 258 261 263 265 267 269 271 272 273 274 275 276 276 277 277 277 279 281 282 284 285 285
229 229 229 229 229 230 231 232 233 234 235 237 238 239 240 241 242 242 242 243 243 243 244 245 247 248 248 248 249 250 251 252 253 253 253 254 254 254 256 257 258 260 261 263 265 266 267 268 270 271 272 272 273 274 275 276 278 279 281 282 283 284 284
232 233 233 232 231 230 230 231 232 233 233 235 237 238 239 240 241 242 243 244 245 245 245 246 247 248 249 250 251 252 253 254 255 254 254 254 255 255 255 256 257 259 261 262 263 264 265 266 267 269 271 272 273 274 275 276 277 278 279 281 282 283 284
233 235 235 235 233 231 230 231 231 231 232 234 236 237 238 239 240 241 242 243 244 245 246 246 247 247 248 249 251 252 252 253 254 255 255 255 255 255 255 255 257 258 260 262 263 264 265 266 268 269 270 272 273 274 275 276 277 278 279 281 282 283 283
Height
5865 5866 5871 5875 5877 5879 5880 5881 5883 5885 5885 5883 5883 5884 5888 5892 5896 5899 5901 5903 5904 5906 5908 5910 5911 5913 5915 5916 5918 5920 5922 5924 5925 5927 5928 5930 5931 5932 5934 5935 5936 5937 5938 5939 5940 5941 5941 5942 5942 5942 5942 5942 5942 5942 5943 5943 5943 5943 5943 5943 5943 5943 5943
5863 5863 5867 5873 5877 5880 5881 5882 5884 5885 5883 5881 5881 5884 5888 5892 5895 5898 5900 5902 5903 5905 5906 5908 5910 5912 5914 5915 5917 5919 5921 5923 5925 5926 5928 5930 5931 5932 5933 5934 5935 5937 5938 5939 5939 5940 5941 5941 5941 5942 5942 5942 5942 5942 5942 5942 5943 5942 5942 5942 5942 5942 5943
5863 5861 5863 5869 5875 5878 5879 5881 5883 5884 5881 5878 5879 5883 5888 5891 5894 5896 5898 5900 5902 5904 5906 5908 5909 5911 5913 5915 5917 5919 5921 5923 5924 5926 5928 5929 5930 5931 5932 5934 5935 5936 5937 5938 5939 5939 5940 5940 5940 5941 5941 5941 5942 5942 5942 5942 5942 5942 5942 5942 5942 5942 5942
5862 5862 5862 5866 5871 5873 5873 5876 5878 5878 5877 5875 5878 5883 5887 5890 5892 5895 5897 5899 5901 5904 5905 5907 5908 5910 5912 5914 5916 5919 5921 5922 5924 5926 5927 5928 5930 5931 5932 5933 5934 5935 5935 5936 5937 5938 5938 5939 5940 5940 5940 5940 5941 5941 5941 5941 5941 5941 5941 5941 5941 5941 5941
5860 5862 5862 5864 5868 5869 5870 5873 5874 5875 5876 5876 5879 5883 5886 5888 5891 5893 5896 5898 5901 5903 5904 5906 5908 5910 5912 5914 5916 5918 5920 5922 5923 5925 5926 5927 5929 5930 5931 5931 5932 5933 5934 5935 5935 5936 5937 5937 5938 5939 5939 5939 5939 5940 5940 5940 5940 5940 5940 5940 5940 5940 5940
5857 5860 5861 5862 5866 5869 5870 5873 5875 5876 5877 5876 5878 5882 5884 5887 5890 5892 5895 5897 5900 5902 5904 5906 5908 5910 5912 5914 5915 5917 5919 5920 5922 5923 5925 5926 5927 5928 5929 5930 5931 5932 5933 5933 5934 5935 5935 5936 5936 5937 5937 5938 5938 5938 5938 5938 5938 5938 5938 5939 5939 5939 5939
5855 5858 5860 5861 5865 5869 5871 5872 5874 5876 5876 5876 5876 5879 5882 5886 5888 5890 5894 5896 5899 5901 5903 5906 5908 5910 5911 5913 5914 5916 5917 5919 5920 5922 5923 5925 5926 5927 5927 5928 5929 5930 5931 5932 5932 5933 5933 5934 5934 5935 5935 5935 5936 5936 5936 5936 5936 5937 5937 5937 5937 5937 5937
5853 5856 5859 5860 5864 5868 5869 5869 5872 5874 5876 5877 5877 5878 5881 5884 5887 5889 5892 5895 5898 5900 5902 5904 5906 5908 5909 5911 5912 5914 5915 5917 5919 5920 5922 5923 5925 5925 5926 5927 5928 5928 5929 5930 5930 5931 5931 5932 5932 5933 5933 5933 5933 5934 5934 5934 5934 5935 5935 5935 5935 5935 5935
5851 5853 5856 5859 5861 5865 5867 5868 5871 5874 5877 5880 5879 5878 5880 5883 5886 5888 5891 5893 5896 5899 5901 5902 5904 5906 5907 5909 5911 5912 5914 5916 5917 5919 5920 5922 5923 5924 5925 5925 5926 5927 5928 5928 5928 5929 5929 5929 5930 5931 5931 5931 5931 5931 5932 5932 5932 5932 5933 5933 5933 5933 5933
5850 5851 5853 5856 5858 5860 5864 5868 5871 5874 5876 5879 5880 5878 5880 5883 5885 5887 5889 5892 5894 5897 5899 5900 5902 5904 5906 5907 5909 5911 5913 5915 5916 5918 5919 5920 5921 5922 5923 5924 5925 5925 5926 5926 5926 5927 5927 5927 5928 5928 5929 5929 5929 5929 5929 5929 5929 5930 5930 5931 5931 5931 5931
5849 5849 5851 5854 5855 5857 5862 5866 5869 5872 5874 5877 5878 5877 5879 5882 5884 5887 5889 5891 5893 5895 5896 5899 5901 5903 5904 5906 5907 5910 5912 5913 5914 5916 5917 5918 5919 5920 5921 5922 5923 5924 5924 5924 5925 5925 5925 5926 5926 5926 5926 5927 5927 5927 5927 5927 5927 5927 5928 5928 5929 5928 5929
5847 5848 5851 5853 5854 5856 5860 5864 5867 5870 5872 5874 5875 5876 5877 5880 5883 5886 5888 5890 5892 5893 5895 5897 5899 5901 5903 5904 5906 5908 5910 5911 5913 5914 5915 5916 5918 5919 5920 5921 5921 5922 5922 5922 5923 5923 5924 5924 5924 5924 5924 5924 5925 5925 5925 5925 5925 5926 5926 5926 5926 5926 5926
5846 5847 5849 5852 5853 5855 5861 5865 5866 5869 5870 5871 5873 5875 5876 5879 5882 5884 5887 5888 5890 5892 5893 5895 5897 5899 5901 5902 5905 5907 5908 5910 5911 5912 5913 5914 5915 5916 5918 5919 5919 5920 5920 5921 5921 5922 5922 5922 5922 5922 5922 5922 5923 5923 5924 5924 5924 5924 5924 5924 5924 5924 5924
5844 5845 5847 5849 5851 5855 5860 5863 5865 5867 5868 5869 5871 5873 5875 5877 5880 5883 5885 5887 5888 5890 5892 5894 5895 5897 5899 5901 5903 5905 5907 5908 5909 5910 5911 5912 5913 5914 5915 5916 5917 5918 5918 5919 5919 5920 5920 5920 5920 5921 5921 5921 5921 5922 5922 5922 5922 5922 5923 5922 5922 5923 5923
5842 5844 5845 5847 5850 5854 5858 5861 5862 5864 5866 5867 5869 5871 5873 5876 5878 5881 5883 5886 5887 5889 5891 5893 5894 5896 5898 5900 5901 5903 5904 5905 5907 5908 5909 5910 5911 5912 5913 5914 5914 5915 5916 5916 5917 5917 5918 5918 5918 5919 5919 5919 5920 5920 5921 5921 5921 5921 5921 5921 5921 5921 5922
5841 5843 5845 5846 5848 5852 5855 5858 5860 5862 5863 5865 5866 5868 5871 5874 5876 5879 5882 5884 5886 5888 5890 5892 5893 5895 5897 5899 5900 5901 5901 5902 5904 5906 5907 5908 5909 5909 5910 5911 5912 5913 5914 5915 5915 5915 5915 5916 5917 5917 5918 5918 5919 5919 5919 5919 5920 5920 5920 5920 5920 5920 5920
5839 5841 5843 5844 5845 5848 5851 5854 5857 5859 5861 5862 5864 5867 5869 5872 5874 5877 5880 5883 5885 5887 5888 5890 5892 5894 5895 5897 5898 5899 5899 5900 5901 5903 5904 5905 5906 5907 5908 5909 5910 5911 5912 5913 5913 5913 5913 5914 5915 5916 5916 5916 5917 5918 5918 5918 5918 5919 5919 5919 5919 5919 5919
5836 5837 5839 5841 5843 5845 5848 5850 5853 5856 5858 5860 5862 5865 5867 5870 5872 5875 5878 5881 5883 5885 5887 5889 5891 5892 5894 5895 5896 5897 5897 5898 5898 5900 5901 5903 5904 5904 5905 5906 5908 5909 5910 5910 5911 5911 5911 5912 5913 5914 5914 5915 5916 5916 5917 5917 5918 5918 5918 5918 5918 5917 5917
5834 5836 5837 5839 5842 5845 5847 5849 5851 5853 5856 5858 5861 5863 5866 5868 5871 5873 5876 5878 5881 5883 5885 5887 5888 5890 5891 5892 5893 5895 5895 5895 5896 5897 5898 5900 5901 5902 5903 5904 5906 5907 5907 5908 5908 5909 5909 5910 5910 5911 5912 5913 5914 5915 5916 5916 5917 5917 5917 5917 5917 5916 5916
5834 5834 5835 5837 5841 5844 5846 5847 5849 5851 5854 5856 5859 5861 5863 5866 5868 5871 5873 5876 5879 5881 5883 5884 5886 5887 5889 5890 5891 5892 5893 5893 5893 5894 5896 5897 5898 5899 5901 5902 5903 5904 5904 5905 5905 5906 5907 5908 5908 5909 5910 5911 5913 5914 5915 5916 5916 5916 5916 5916 5915 5915 5914
5831 5832 5834 5836 5838 5840 5843 5845 5847 5850 5853 5855 5857 5860 5861 5864 5866 5868 5871 5874 5876 5879 5881 5882 5884 5885 5886 5887 5888 5889 5890 5890 5891 5892 5893 5895 5896 5897 5899 5900 5900 5901 5901 5902 5903 5904 5905 5906 5907 5908 5909 5910 5911 5912 5914 5914 5914 5914 5914 5914 5914 5913 5913
5828 5829 5831 5832 5833 5837 5840 5843 5845 5848 5851 5854 5855 5857 5859 5862 5864 5866 5869 5871 5873 5876 5878 5880 5882 5883 5884 5885 5886 5886 5887 5888 5889 5890 5891 5892 5893 5895 5896 5897 5898 5898 5898 5899 5900 5901 5902 5903 5905 5906 5907 5908 5909 5910 5911 5912 5912 5912 5913 5913 5912 5911 5911
5822 5825 5827 5828 5830 5835 5839 5841 5843 5846 5849 5851 5852 5854 5856 5858 5860 5863 5866 5868 5871 5873 5875 5877 5879 5881 5882 5882 5883 5884 5884 5885 5886 5887 5888 5890 5891 5892 5894 5894 5895 5896 5896 5897 5898 5899 5900 5901 5902 5903 5904 5905 5906 5907 5908 5909 5909 5910 5910 5910 5910 5910 5909
5820 5823 5826 5827 5830 5835 5838 5840 5841 5843 5845 5847 5849 5851 5852 5854 5857 5859 5862 5865 5868 5870 5872 5875 5877 5878 5879 5880 5881 5882 5883 5883 5884 5885 5886 5887 5889 5890 5891 5892 5892 5893 5894 5894 5895 5896 5897 5898 5899 5900 5901 5902 5903 5904 5905 5906 5906 5907 5907 5908 5908 5907 5907
5819 5822 5824 5825 5829 5833 5835 5837 5839 5840 5843 5845 5847 5849 5850 5852 5854 5856 5858 5861 5864 5866 5869 5872 5873 5874 5876 5877 5878 5880 5880 5881 5882 5883 5884 5885 5886 5887 5888 5889 5890 5891 5891 5892 5893 5893 5894 5895 5897 5898 5898 5899 5900 5901 5902 5903 5904 5904 5905 5905 5904 5904 5904
5816 5819 5821 5823 5827 5830 5832 5833 5836 5838 5840 5843 5845 5846 5848 5849 5851 5853 5855 5857 5859 5862 5865 5867 5869 5870 5872 5873 5875 5877 5878 5879 5880 5881 5882 5883 5884 5885 5886 5887 5888 5888 5889 5890 5890 5891 5892 5893 5894 5895 5896 5897 5898 5899 5900 5901 5901 5902 5902 5902 5901 5901 5900
5814 5817 5819 5821 5824 5827 5828 5830 5833 5836 5838 5840 5842 5844 5845 5847 5849 5851 5852 5854 5855 5858 5860 5862 5864 5866 5868 5870 5872 5873 5875 5876 5877 5878 5879 5880 5880 5882 5883 5884 5885 5886 5886 5887 5888 5889 5889 5890 5891 5892 5893 5894 5895 5896 5897 5898 5898 5898 5899 5898 5898 5897 5896
5812 5814 5816 5819 5821 5823 5825 5827 5830 5833 5835 5837 5839 5841 5843 5845 5847 5848 5850 5851 5853 5854 5856 5858 5861 5863 5865 5867 5868 5870 5872 5873 5874 5875 5876 5877 5878 5879 5880 5881 5882 5883 5884 5885 5885 5886 5887 5888 5888 5889 5890 5890 5891 5892 5893 5893 5893 5894 5895 5895 5894 5893 5891
5809 5811 5813 5815 5817 5820 5823 5825 5827 5829 5832 5834 5836 5838 5840 5842 5844 5846 5847 5848 5850 5852 5853 5855 5857 5859 5861 5863 5864 5866 5867 5869 5871 5872 5873 5874 5875 5876 5876 5877 5878 5880 5881 5881 5882 5883 5884 5885 5885 5885 5886 5886 5887 5887 5888 5888 5888 5889 5890 5890 5890 5888 5887
5805 5807 5809 5811 5813 5817 5819 5821 5824 5826 5829 5831 5834 5835 5837 5839 5841 5842 5844 5846 5848 5849 5850 5852 5854 5856 5858 5859 5861 5862 5864 5865 5867 5868 5869 5871 5871 5872 5873 5874 5875 5876 5877 5878 5879 5879 5880 5881 5881 5881 5882 5882 5882 5882 5882 5882 5882 5883 5883 5884 5885 5883 5882
5801 5803 5805 5807 5810 5813 5815 5817 5820 5823 5825 5828 5830 5832 5834 5836 5838 5840 5841 5843 5845 5846 5847 5848 5850 5852 5854 5855 5857 5858 5859 5861 5863 5864 5866 5867 5868 5869 5870 5870 5871 5872 5873 5874 5875 5875 5876 5876 5877 5877 5877 5878 5877 5877 5877 5877 5876 5876 5876 5877 5878 5877 5877
5797 5799 5801 5803 5806 5809 5811 5813 5816 5819 5821 5824 5826 5828 5829 5832 5834 5837 5838 5839 5841 5842 5843 5845 5847 5849 5850 5852 5853 5854 5855 5857 5858 5860 5861 5862 5864 5865 5866 5867 5867 5868 5869 5869 5870 5871 5871 5872 5872 5872 5872 5872 5872 5872 5872 5871 5871 5870 5869 5869 5869 5871 5871
5792 5795 5798 5800 5803 5806 5807 5809 5811 5814 5817 5819 5822 5823 5825 5827 5830 5832 5834 5835 5837 5838 5839 5841 5843 5845 5846 5847 5849 5850 5851 5853 5854 5856 5857 5858 5859 5860 5862 5863 5863 5863 5864 5865 5865 5866 5866 5867 5867 5867 5867 5867 5866 5866 5866 5866 5865 5864 5862 5861 5862 5864 5864
5787 5790 5793 5796 5798 5802 5804 5805 5807 5810 5813 5815 5817 5819 5821 5823 5825 5827 5829 5831 5832 5834 5835 5837 5838 5840 5842 5843 5844 5846 5847 5848 5849 5851 5852 5853 5855 5856 5857 5858 5858 5859 5860 5860 5860 5860 5861 5861 5862 5862 5861 5861 5861 5860 5860 5860 5859 5858 5856 5855 5856 5856 5856
5782 5786 5789 5791 5794 5797 5799 5801 5803 5806 5809 5810 5812 5814 5816 5818 5820 5822 5824 5826 5828 5829 5831 5832 5834 5835 5837 5838 5840 5841 5842 5844 5845 5846 5847 5848 5850 5851 5852 5853 5854 5854 5854 5855 5855 5856 5856 5856 5856 5856 5856 5855 5855 5855 5855 5854 5853 5852 5851 5850 5849 5849 5848
5778 5781 5784 5787 5790 5792 5795 5796 5799 5802 5804 5806 5807 5809 5811 5813 5815 5818 5820 5822 5823 5825 5826 5828 5829 5830 5832 5833 5835 5836 5838 5839 5840 5841 5843 5844 5845 5846 5847 5848 5848 5849 5849 5849 5850 5851 5851 5851 5850 5850 5850 5849 5849 5849 5849 5849 5848 5846 5844 5843 5842 5841 5840
5773 5775 5778 5781 5784 5787 5790 5792 5794 5797 5799 5801 5803 5805 5807 5809 5811 5813 5815 5817 5819 5820 5822 5824 5825 5826 5827 5829 5830 5832 5834 5834 5835 5837 5838 5838 5839 5841 5842 5842 5843 5843 5843 5844 5845 5845 5845 5845 5845 5845 5844 5843 5843 5842 5842 5842 5841 5840 5838 5837 5836 5834 5833
5767 5770 5773 5776 5779 5782 5785 5787 5789 5792 5794 5796 5798 5800 5802 5804 5807 5808 5810 5813 5814 5816 5817 5819 5819 5821 5823 5825 5826 5827 5828 5829 5830 5832 5833 5833 5834 5835 5836 5836 5837 5837 5838 5839 5838 5838 5838 5839 5839 5839 5838 5838 5837 5836 5835 5835 5834 5833 5832 5831 5830 5828 5827